GW1942 Weather Reports


time (UTC)temp
C
wind
direction
speed
KPH
gust
KPH
rain 1hr
cm
rain 24hr
cm
rain mn
cm
humidity
%
barometer
mb
20260510190036 21 6 0.0 3.2 0.00 0.00 0.00 41 1013.7
20260510184529 20 11 0.0 6.4 0.00 0.00 0.00 42 1014.0
20260510183026 19 283 1.6 4.8 0.00 0.00 0.00 43 1014.4
20260510181522 18 284 1.6 6.4 0.00 0.00 0.00 44 1014.7
20260510180024 18 293 1.6 6.4 0.00 0.00 0.00 44 1014.8
20260510174517 18 328 0.0 3.2 0.00 0.00 0.00 46 1015.1
20260510173014 17 264 0.0 4.8 0.00 0.00 0.00 46 1015.2
20260510171511 16 143 0.0 3.2 0.00 0.00 0.00 48 1015.6
20260510170009 16 238 0.0 4.8 0.00 0.00 0.00 49 1015.6
20260510164516 16 51 0.0 4.8 0.00 0.00 0.00 49 1016.1
20260510163101 15 304 0.0 3.2 0.00 0.00 0.00 52 1016.1
20260510161605 13 286 0.0 3.2 0.00 0.00 0.00 53 1016.4
20260510160055 13 279 1.6 4.8 0.00 0.00 0.00 55 1016.8
20260510154557 13 276 0.0 3.2 0.00 0.00 0.00 59 1017.0
20260510153053 12 297 0.0 1.6 0.00 0.00 0.00 62 1017.1
20260510151548 12 158 0.0 1.6 0.00 0.00 0.00 62 1017.2
20260510150104 11 100 0.0 3.2 0.00 0.00 0.00 65 1017.4
20260510144542 10 60 0.0 1.6 0.00 0.00 0.00 66 1017.3
20260510143039 10 123 0.0 1.6 0.00 0.00 0.00 72 1017.3
20260510141537 9 141 0.0 0.0 0.00 0.00 0.00 75 1017.2
20260510140035 7 200 0.0 0.0 0.00 0.00 0.00 78 1017.4
20260510134533 6 206 0.0 1.6 0.00 0.00 0.00 82 1017.3
20260510133033 5 213 1.6 4.8 0.00 0.00 0.00 85 1017.5
20260510131532 4 226 0.0 1.6 0.00 0.00 0.00 88 1017.5
20260510130032 3 246 0.0 0.0 0.00 0.00 0.00 89 1017.7
20260510124530 3 237 0.0 0.0 0.00 0.00 0.00 88 1017.8
20260510123030 2 124 0.0 0.0 0.00 0.00 0.00 90 1017.7
20260510121529 2 119 0.0 1.6 0.00 0.00 0.00 89 1017.6
20260510120029 3 160 0.0 0.0 0.00 0.00 0.00 88 1017.6
20260510114528 2 131 0.0 1.6 0.00 0.00 0.00 90 1017.7
20260510113025 2 154 0.0 0.0 0.00 0.00 0.00 89 1017.5
20260510111525 2 127 0.0 1.6 0.00 0.00 0.00 88 1017.8
20260510110022 3 224 0.0 0.0 0.00 0.00 0.00 85 1017.8
20260510104520 3 226 0.0 1.6 0.00 0.00 0.00 87 1017.8
20260510103020 3 105 0.0 1.6 0.00 0.00 0.00 87 1017.8
20260510101518 3 147 0.0 3.2 0.00 0.00 0.00 87 1017.7
20260510100015 4 147 0.0 3.2 0.00 0.00 0.00 82 1017.8
20260510094531 4 90 0.0 1.6 0.00 0.00 0.00 85 1017.9
20260510093011 5 134 0.0 1.6 0.00 0.00 0.00 84 1017.8
20260510091510 5 213 0.0 1.6 0.00 0.00 0.00 84 1017.8
20260510090008 5 148 0.0 0.0 0.00 0.00 0.00 83 1017.9
20260510084514 5 261 0.0 3.2 0.00 0.00 0.00 83 1017.8
20260510083004 5 138 0.0 1.6 0.00 0.00 0.00 81 1017.7
20260510081505 5 148 0.0 0.0 0.00 0.00 0.00 81 1017.7
20260510080002 5 165 0.0 0.0 0.00 0.00 0.00 82 1017.7
20260510074559 5 134 0.0 1.6 0.00 0.00 0.00 81 1017.7
20260510073059 6 137 0.0 0.0 0.00 0.00 0.00 80 1017.7
20260510071559 6 123 0.0 1.6 0.00 0.00 0.00 80 1017.7
20260510070052 6 200 0.0 1.6 0.00 0.00 0.00 76 1017.5
20260510064559 6 198 0.0 1.6 0.00 0.00 0.00 77 1017.6
20260510063047 7 160 0.0 1.6 0.00 0.00 0.00 74 1017.6
20260510061544 8 148 0.0 1.6 0.00 0.00 0.00 71 1017.6
20260510060044 8 62 1.6 4.8 0.00 0.00 0.00 68 1017.6
20260510054541 7 149 0.0 3.2 0.00 0.00 0.00 73 1017.6
20260510053041 9 166 0.0 3.2 0.00 0.00 0.00 70 1017.4
20260510051540 11 146 1.6 6.4 0.00 0.00 0.00 62 1017.4
20260510050039 12 120 3.2 11.3 0.00 0.00 0.00 56 1017.4
20260510044541 12 96 0.0 4.8 0.00 0.00 0.00 54 1017.5
20260510043038 11 108 3.2 8.0 0.00 0.00 0.00 55 1017.4
20260510041541 12 178 3.2 9.7 0.00 0.00 0.00 53 1017.3
20260510040036 13 91 3.2 9.7 0.00 0.00 0.00 51 1017.0
20260510034535 14 86 6.4 14.5 0.00 0.00 0.00 50 1016.9
20260510033034 15 97 4.8 9.7 0.00 0.00 0.00 47 1016.7
20260510031534 16 94 3.2 8.0 0.00 0.00 0.00 47 1016.7
20260510030044 15 75 1.6 4.8 0.00 0.00 0.00 52 1016.5
20260510024532 17 226 0.0 1.6 0.00 0.00 0.00 47 1016.4
20260510023032 19 276 0.0 1.6 0.00 0.00 0.00 33 1016.1
20260510021532 20 311 0.0 4.8 0.00 0.00 0.00 32 1016.2
20260510020031 21 289 0.0 4.8 0.00 0.00 0.00 31 1016.2
20260510014532 21 316 3.2 9.7 0.00 0.00 0.00 29 1016.0
20260510013031 22 241 0.0 6.4 0.00 0.00 0.00 30 1016.1
20260510011528 22 261 1.6 8.0 0.00 0.00 0.00 29 1016.1
20260510010026 22 240 1.6 11.3 0.00 0.00 0.00 28 1016.1
20260510004525 23 224 3.2 8.0 0.00 0.00 0.00 27 1016.0
20260510003035 23 282 0.0 6.4 0.00 0.00 0.00 27 1016.0
20260510001524 23 241 1.6 9.7 0.00 0.00 0.00 27 1016.0
20260510000023 23 251 3.2 8.0 0.00 0.00 0.00 27 1015.8
20260509234530 22 155 1.6 9.7 0.00 0.00 0.00 27 1015.7
20260509233020 22 212 4.8 11.3 0.00 0.00 0.00 27 1015.9
20260509231520 23 203 4.8 11.3 0.00 0.00 0.00 26 1015.9
20260509230019 23 192 0.0 11.3 0.00 0.00 0.00 27 1016.0
20260509224518 23 214 1.6 9.7 0.00 0.00 0.00 28 1016.0
20260509223016 23 235 3.2 11.3 0.00 0.00 0.00 29 1016.1
20260509221516 22 275 1.6 14.5 0.00 0.00 0.00 28 1016.3
20260509220024 23 300 3.2 16.1 0.00 0.00 0.00 26 1016.2
20260509214512 21 79 1.6 6.4 0.00 0.00 0.00 28 1016.5
20260509213012 21 248 1.6 8.0 0.00 0.00 0.00 31 1016.5
20260509211511 21 249 1.6 9.7 0.00 0.00 0.00 28 1016.6
20260509210011 22 298 1.6 11.3 0.00 0.00 0.00 28 1016.7
20260509204508 22 309 6.4 12.9 0.00 0.00 0.00 28 1016.7
20260509203010 22 40 1.6 8.0 0.00 0.00 0.00 32 1016.5
20260509201505 21 304 3.2 12.9 0.00 0.00 0.00 32 1016.8
20260509200006 21 296 4.8 12.9 0.00 0.00 0.00 31 1016.7
20260509194502 21 313 3.2 6.4 0.00 0.00 0.00 33 1016.8
20260509193002 21 59 3.2 8.0 0.00 0.00 0.00 31 1016.9
20260509191601 21 40 1.6 9.7 0.00 0.00 0.00 32 1017.0
20260509190057 20 207 6.4 12.9 0.00 0.00 0.00 34 1017.1